Weather History for Dumas, TX

Change the Weather History Date:

Friday, February 15, 2013

  Actual Average (KBGD) Record (KBGD)
Temperature  
Mean Temperature 34 °F 42 °F  
Max Temperature 42 °F 55 °F 77 °F (1971)
Min Temperature 26 °F 29 °F 5 °F (2007)
Degree Days  
Heating Degree Days 31 23  
Month to date heating degree days 360  
Since 1 July heating degree days 2712  
Cooling Degree Days 0 0  
Month to date cooling degree days 0  
Year to date cooling degree days 0  
Moisture  
Dew Point 23 °F    
Average Humidity 66    
Maximum Humidity 87    
Minimum Humidity 42    
Precipitation  
Precipitation 0.00 in 0.02 in 0.58 in (1993)
Month to date precipitation 0.37  
Year to date precipitation 0.96  
Snow  
Snow 0.00 in - 4.50 in (1993)
Month to date snowfall  
Since 1 July snowfall  
Snow Depth -    
Sea Level Pressure  
Sea Level Pressure 30.31 in    
Wind  
Wind Speed 9 mph (NNW)    
Max Wind Speed 16 mph    
Max Gust Speed 26 mph    
Visibility 10 miles    
Events      
T = Trace of Precipitation, MM = Missing Value Source: NWS Daily Summary

Daily Weather History Graph

Daily Weather History Graph

Search for Another Location

Airport:

Trip Planner

Search our weather history database for the weather conditions in past years. The results will help you decide how hot, cold, wet, or windy it might be!

Date:

Astronomy

Feb. 15, 2013 Rise Set
Actual Time 7:34 AM CST 6:30 PM CST
Civil Twilight 7:08 AM CST 6:56 PM CST
Nautical Twilight 6:38 AM CST 7:26 PM CST
Astronomical Twilight 6:08 AM CST 7:55 PM CST
Moon 10:24 AM CST (2/15) No Moon Set
Length of Visible Light 11h 47m
Length of Day
10h 55m
Waxing Crescent, 30% of the Moon is Illuminated
Feb 15
Waxing Crescent
Feb 17
First Quarter
Feb 25
Full
Mar 4
Last Quarter
Mar 11
New

Hourly Weather History & Observations

Time (CST) Temp. Windchill Dew Point Humidity Pressure Visibility Wind Dir Wind Speed Gust Speed Precip Events Conditions
12:15 AM 32.0 °F 24.2 °F 28.4 °F 87% 30.31 in 10.0 mi North 9.2 mph - N/A   Overcast
12:35 AM 32.0 °F 23.0 °F 28.4 °F 87% 30.31 in 10.0 mi North 11.5 mph - N/A   Overcast
12:55 AM 32.0 °F 22.5 °F 26.6 °F 80% 30.31 in 10.0 mi North 12.7 mph - N/A   Overcast
1:15 AM 32.0 °F 23.0 °F 26.6 °F 80% 30.31 in 10.0 mi North 11.5 mph - N/A   Mostly Cloudy
1:35 AM 32.0 °F 23.0 °F 24.8 °F 75% 30.31 in 10.0 mi North 11.5 mph - N/A   Mostly Cloudy
1:55 AM 32.0 °F 22.5 °F 24.8 °F 75% 30.31 in 10.0 mi North 12.7 mph - N/A   Mostly Cloudy
2:15 AM 32.0 °F 23.6 °F 24.8 °F 75% 30.31 in 10.0 mi North 10.4 mph - N/A   Mostly Cloudy
2:35 AM 32.0 °F 23.6 °F 24.8 °F 75% 30.31 in 10.0 mi North 10.4 mph - N/A   Overcast
2:55 AM 32.0 °F 24.2 °F 24.8 °F 75% 30.32 in 10.0 mi North 9.2 mph - N/A   Mostly Cloudy
3:15 AM 30.2 °F 21.3 °F 24.8 °F 80% 30.31 in 10.0 mi North 10.4 mph - N/A   Mostly Cloudy
3:35 AM 30.2 °F 21.9 °F 24.8 °F 80% 30.31 in 10.0 mi North 9.2 mph - N/A   Overcast
3:55 AM 30.2 °F 21.3 °F 24.8 °F 80% 30.31 in 10.0 mi North 10.4 mph - N/A   Overcast
4:15 AM 30.2 °F 20.8 °F 24.8 °F 80% 30.31 in 10.0 mi North 11.5 mph - N/A   Overcast
4:35 AM 30.2 °F 21.9 °F 23.0 °F 75% 30.30 in 10.0 mi North 9.2 mph - N/A   Overcast
4:55 AM 30.2 °F 21.3 °F 23.0 °F 75% 30.30 in 10.0 mi NNE 10.4 mph - N/A   Mostly Cloudy
5:15 AM 30.2 °F 23.4 °F 23.0 °F 75% 30.31 in 10.0 mi NNE 6.9 mph - N/A   Scattered Clouds
5:35 AM 30.2 °F 23.4 °F 23.0 °F 75% 30.32 in 10.0 mi North 6.9 mph - N/A   Clear
5:55 AM 30.2 °F 23.4 °F 23.0 °F 75% 30.32 in 10.0 mi North 6.9 mph - N/A   Scattered Clouds
6:15 AM 30.2 °F 23.4 °F 21.2 °F 69% 30.32 in 10.0 mi North 6.9 mph - N/A   Scattered Clouds
6:35 AM 30.2 °F 25.4 °F 21.2 °F 69% 30.32 in 10.0 mi NNE 4.6 mph - N/A   Scattered Clouds
6:55 AM 30.2 °F 24.3 °F 23.0 °F 75% 30.33 in 10.0 mi North 5.8 mph - N/A   Scattered Clouds
7:15 AM 30.2 °F 24.3 °F 23.0 °F 75% 30.33 in 10.0 mi North 5.8 mph - N/A   Scattered Clouds
7:35 AM 30.2 °F - 23.0 °F 75% 30.33 in 10.0 mi Calm Calm - N/A   Clear
7:55 AM 28.4 °F - 23.0 °F 80% 30.33 in 10.0 mi Calm Calm - N/A   Clear
8:15 AM 28.4 °F - 23.0 °F 80% 30.34 in 10.0 mi Calm Calm - N/A   Scattered Clouds
8:35 AM 28.4 °F - 23.0 °F 80% 30.34 in 10.0 mi Calm Calm - N/A   Clear
8:55 AM 30.2 °F - 23.0 °F 75% 30.35 in 10.0 mi Calm Calm - N/A   Scattered Clouds
9:15 AM 30.2 °F 26.7 °F 21.2 °F 69% 30.36 in 10.0 mi North 3.5 mph - N/A   Scattered Clouds
9:35 AM 30.2 °F 24.3 °F 21.2 °F 69% 30.35 in 10.0 mi NNE 5.8 mph - N/A   Scattered Clouds
9:55 AM 32.0 °F 27.5 °F 21.2 °F 64% 30.36 in 10.0 mi NNE 4.6 mph - N/A   Clear
10:15 AM 32.0 °F 27.5 °F 21.2 °F 64% 30.36 in 10.0 mi NNE 4.6 mph - N/A   Clear
10:35 AM 32.0 °F 28.7 °F 21.2 °F 64% 30.36 in 10.0 mi NE 3.5 mph - N/A   Scattered Clouds
10:55 AM 32.0 °F 28.7 °F 19.4 °F 60% 30.36 in 10.0 mi ENE 3.5 mph - N/A   Scattered Clouds
11:15 AM 32.0 °F - 19.4 °F 60% 30.36 in 10.0 mi Calm Calm - N/A   Scattered Clouds
11:35 AM 33.8 °F - 19.4 °F 56% 30.35 in 10.0 mi Calm Calm - N/A   Scattered Clouds
11:55 AM 33.8 °F 28.6 °F 21.2 °F 60% 30.35 in 10.0 mi WSW 5.8 mph - N/A   Scattered Clouds
12:15 PM 33.8 °F 27.7 °F 21.2 °F 60% 30.34 in 10.0 mi South 6.9 mph - N/A   Scattered Clouds
12:35 PM 35.6 °F 30.7 °F 21.2 °F 56% 30.34 in 10.0 mi WSW 5.8 mph - N/A   Scattered Clouds
12:55 PM 35.6 °F 29.9 °F 23.0 °F 60% 30.32 in 10.0 mi SW 6.9 mph - N/A   Clear
1:15 PM 37.4 °F 30.3 °F 23.0 °F 56% 30.31 in 10.0 mi SW 10.4 mph - N/A   Clear
1:35 PM 37.4 °F 30.3 °F 23.0 °F 56% 30.29 in 10.0 mi SW 10.4 mph - N/A   Clear
1:55 PM 39.2 °F 31.6 °F 23.0 °F 52% 30.28 in 10.0 mi SW 12.7 mph - N/A   Clear
2:15 PM 39.2 °F 33.0 °F 23.0 °F 52% 30.28 in 10.0 mi WSW 9.2 mph 21.9 mph N/A   Scattered Clouds
2:35 PM 41.0 °F 33.1 °F 23.0 °F 49% 30.27 in 10.0 mi WSW 15.0 mph 19.6 mph N/A   Clear
2:55 PM 41.0 °F 33.9 °F 23.0 °F 49% 30.27 in 10.0 mi WSW 12.7 mph 19.6 mph N/A   Scattered Clouds
3:15 PM 41.0 °F 33.5 °F 23.0 °F 49% 30.26 in 10.0 mi WSW 13.8 mph 21.9 mph N/A   Clear
3:35 PM 42.8 °F 36.6 °F 23.0 °F 46% 30.25 in 10.0 mi WSW 11.5 mph - N/A   Clear
3:55 PM 42.8 °F 35.4 °F 23.0 °F 46% 30.24 in 10.0 mi WSW 15.0 mph 21.9 mph N/A   Clear
4:15 PM 42.8 °F 36.2 °F 23.0 °F 46% 30.24 in 10.0 mi SW 12.7 mph - N/A   Clear
4:35 PM 42.8 °F 37.5 °F 23.0 °F 46% 30.25 in 10.0 mi WSW 9.2 mph 16.1 mph N/A   Clear
4:55 PM 41.0 °F 32.8 °F 23.0 °F 49% 30.25 in 7.0 mi NW 16.1 mph 26.5 mph N/A   Scattered Clouds
5:15 PM 41.0 °F 38.0 °F 23.0 °F 49% 30.24 in 10.0 mi West 4.6 mph - N/A   Scattered Clouds
5:35 PM 42.8 °F 38.0 °F 21.2 °F 42% 30.24 in 10.0 mi SW 8.1 mph - N/A   Scattered Clouds
5:55 PM 41.0 °F 37.1 °F 23.0 °F 49% 30.22 in 10.0 mi SW 5.8 mph - N/A   Clear
6:15 PM 39.2 °F 35.0 °F 26.6 °F 61% 30.23 in 10.0 mi SSW 5.8 mph - N/A   Clear
6:35 PM 39.2 °F 34.2 °F 26.6 °F 61% 30.24 in 10.0 mi SW 6.9 mph - N/A   Scattered Clouds
6:55 PM 41.0 °F 39.0 °F 23.0 °F 49% 30.24 in 10.0 mi NW 3.5 mph - N/A   Clear
7:15 PM 37.4 °F 32.8 °F 23.0 °F 56% 30.26 in 10.0 mi North 5.8 mph - N/A   Clear
7:35 PM 35.6 °F 26.6 °F 21.2 °F 56% 30.27 in 10.0 mi North 13.8 mph - N/A   Clear
7:55 PM 35.6 °F 28.0 °F 21.2 °F 56% 30.28 in 10.0 mi NNE 10.4 mph - N/A   Clear
8:15 PM 33.8 °F 25.8 °F 21.2 °F 60% 30.29 in 10.0 mi NNE 10.4 mph - N/A   Clear
8:35 PM 32.0 °F 24.2 °F 21.2 °F 64% 30.31 in 10.0 mi North 9.2 mph - N/A   Clear
8:55 PM 32.0 °F 24.2 °F 21.2 °F 64% 30.31 in 10.0 mi North 9.2 mph - N/A   Clear
9:15 PM 32.0 °F 23.6 °F 21.2 °F 64% 30.33 in 10.0 mi North 10.4 mph - N/A   Clear
9:35 PM 32.0 °F 24.8 °F 21.2 °F 64% 30.34 in 10.0 mi NNE 8.1 mph - N/A   Clear
9:55 PM 30.2 °F 25.4 °F 21.2 °F 69% 30.34 in 10.0 mi North 4.6 mph - N/A   Clear
10:15 PM 28.4 °F 20.4 °F 21.2 °F 74% 30.36 in 10.0 mi North 8.1 mph - N/A   Clear
10:35 PM 28.4 °F 20.4 °F 21.2 °F 74% 30.36 in 10.0 mi North 8.1 mph - N/A   Clear
10:55 PM 26.6 °F 18.2 °F 21.2 °F 80% 30.35 in 10.0 mi North 8.1 mph - N/A   Clear
11:15 PM 28.4 °F 21.2 °F 21.2 °F 74% 30.37 in 10.0 mi NNW 6.9 mph - N/A   Clear
11:35 PM 28.4 °F 18.5 °F 21.2 °F 74% 30.36 in 10.0 mi North 11.5 mph - N/A   Clear
11:55 PM 26.6 °F 19.1 °F 21.2 °F 80% 30.36 in 10.0 mi NNW 6.9 mph - N/A   Clear